EW6614 Weather Reports


Display with metric or nautical units.
time (UTC)temp
F
wind
direction
speed
MPH
gust
MPH
rain 1hr
in
rain 24hr
in
rain mn
in
humidity
%
barometer
mb
20260507060105 56 0 1.0 6.0 0.00 0.00 0.00 52 1014.7
20260507060046 56 360 0.0 6.0 0.00 0.00 0.00 63 1014.4
20260507054556 57 0 1.0 9.0 0.00 0.00 0.00 52 1014.5
20260507054545 57 360 1.0 9.0 0.00 0.00 0.00 63 1014.3
20260507053057 57 360 3.0 10.0 0.00 0.00 0.00 52 1014.4
20260507053042 57 360 2.0 10.0 0.00 0.00 0.00 64 1014.2
20260507051556 57 360 1.0 9.0 0.00 0.00 0.00 53 1014.3
20260507051542 57 360 2.0 9.0 0.00 0.00 0.00 64 1014.1
20260507050054 57 360 2.0 10.0 0.00 0.00 0.00 53 1014.5
20260507050040 57 360 2.0 10.0 0.00 0.00 0.00 65 1014.2
20260507044555 58 360 0.0 6.0 0.00 0.00 0.00 53 1014.7
20260507044540 58 360 1.0 6.0 0.00 0.00 0.00 65 1014.3
20260507043059 58 360 0.0 6.0 0.00 0.00 0.00 53 1014.0
20260507043033 58 360 2.0 9.0 0.00 0.00 0.00 65 1013.7
20260507041601 58 360 0.0 12.0 0.00 0.00 0.00 53 1014.3
20260507041540 59 360 1.0 12.0 0.00 0.00 0.00 65 1014.1
20260507040101 59 360 3.0 9.0 0.00 0.00 0.00 53 1014.3
20260507040032 59 360 3.0 8.0 0.00 0.00 0.00 65 1014.0
20260507034601 59 360 3.0 10.0 0.00 0.00 0.00 54 1013.8
20260507034528 59 360 3.0 10.0 0.00 0.00 0.00 65 1013.4
20260507033057 59 360 3.0 10.0 0.00 0.00 0.00 55 1013.1
20260507033028 59 360 4.0 10.0 0.00 0.00 0.00 66 1012.8
20260507031555 59 360 3.0 10.0 0.00 0.00 0.00 55 1013.1
20260507031527 60 360 3.0 10.0 0.00 0.00 0.00 67 1013.0
20260507030054 60 360 3.0 11.0 0.00 0.00 0.00 55 1013.1
20260507030021 60 360 2.0 10.0 0.00 0.00 0.00 67 1012.8
20260507024609 60 360 1.0 9.0 0.00 0.00 0.00 55 1012.8
20260507024519 60 360 1.0 9.0 0.00 0.00 0.00 67 1012.4
20260507023057 61 360 2.0 10.0 0.00 0.00 0.00 56 1012.6
20260507023015 61 360 2.0 9.0 0.00 0.00 0.00 67 1012.0
20260507021558 61 360 3.0 10.0 0.00 0.00 0.00 56 1012.4
20260507021515 61 360 3.0 8.0 0.00 0.00 0.00 68 1012.0
20260507020056 61 360 6.0 12.0 0.00 0.00 0.00 56 1011.8
20260507020011 61 360 6.0 12.0 0.00 0.00 0.00 68 1011.6
20260507014559 62 360 2.0 10.0 0.00 0.00 0.00 56 1011.7
20260507014515 62 360 3.0 10.0 0.00 0.00 0.00 68 1011.5
20260507013056 63 360 3.0 10.0 0.00 0.00 0.00 56 1011.4
20260507013005 63 360 3.0 10.0 0.00 0.00 0.00 68 1011.3
20260507011558 63 0 1.0 11.0 0.00 0.00 0.00 56 1011.0
20260507011503 63 360 1.0 11.0 0.00 0.00 0.00 68 1010.7
20260507010114 64 360 2.0 9.0 0.00 0.00 0.00 56 1010.6
20260507010101 64 360 4.0 10.0 0.00 0.00 0.00 67 1010.3
20260507010001 64 360 2.0 9.0 0.00 0.00 0.00 67 1010.3
20260507004559 65 360 2.0 12.0 0.00 0.00 0.00 67 1010.2
20260507004554 65 0 3.0 12.0 0.00 0.00 0.00 56 1010.4
20260507003056 65 360 1.0 10.0 0.00 0.00 0.00 67 1010.2
20260507001559 66 360 1.0 12.0 0.00 0.00 0.00 56 1010.5
20260507001557 66 360 1.0 6.0 0.00 0.00 0.00 67 1010.2
20260507000106 67 360 4.0 11.0 0.00 0.00 0.00 56 1010.3
20260507000051 67 360 5.0 11.0 0.00 0.00 0.00 68 1010.0
20260506234614 67 360 2.0 11.0 0.00 0.00 0.00 56 1010.2
20260506234556 67 360 2.0 9.0 0.00 0.00 0.00 67 1009.8
20260506233103 68 316 4.0 11.0 0.00 0.00 0.00 56 1009.8
20260506233046 68 348 5.0 11.0 0.00 0.00 0.00 68 1009.5
20260506231558 69 17 3.0 8.0 0.00 0.00 0.00 56 1009.5
20260506231551 69 345 3.0 8.0 0.00 0.00 0.00 68 1009.3
20260506230054 70 355 1.0 9.0 0.00 0.00 0.00 56 1009.3
20260506230052 70 346 1.0 9.0 0.00 0.00 0.00 68 1009.0
20260506224556 71 349 3.0 11.0 0.00 0.00 0.00 57 1009.4
20260506224539 71 28 4.0 11.0 0.00 0.00 0.00 69 1009.1
20260506223058 72 350 3.0 13.0 0.00 0.00 0.00 57 1009.3
20260506223047 72 360 3.0 13.0 0.00 0.00 0.00 69 1009.2
20260506221553 73 20 6.0 15.0 0.00 0.00 0.00 57 1008.9
20260506221532 73 13 7.0 15.0 0.00 0.00 0.00 69 1008.6
20260506220056 77 262 5.0 16.0 0.00 0.00 0.00 56 1008.7
20260506220032 77 269 6.0 16.0 0.00 0.00 0.00 68 1008.5
20260506214556 79 22 3.0 11.0 0.00 0.00 0.00 56 1008.1
20260506214530 79 29 3.0 9.0 0.00 0.00 0.00 68 1007.9
20260506213057 80 330 2.0 7.0 0.00 0.00 0.00 55 1008.1
20260506213030 80 329 3.0 6.0 0.00 0.00 0.00 67 1007.9
20260506211557 81 319 1.0 4.0 0.00 0.00 0.00 54 1008.2
20260506211538 81 313 2.0 5.0 0.00 0.00 0.00 66 1007.9
20260506210059 82 102 0.0 2.0 0.00 0.00 0.00 54 1008.3
20260506210033 82 102 0.0 2.0 0.00 0.00 0.00 65 1008.1
20260506204559 82 0 0.0 6.0 0.00 0.00 0.00 53 1008.5
20260506204527 82 103 0.0 6.0 0.00 0.00 0.00 65 1008.2
20260506203054 82 0 0.0 6.0 0.00 0.00 0.00 53 1008.5
20260506203030 82 105 1.0 6.0 0.00 0.00 0.00 65 1008.2
20260506201556 81 336 2.0 5.0 0.00 0.00 0.00 54 1008.4
20260506201533 81 338 1.0 5.0 0.00 0.00 0.00 66 1008.1
20260506200057 80 331 0.0 6.0 0.00 0.00 0.00 56 1008.3
20260506200023 80 360 0.0 6.0 0.00 0.00 0.00 67 1008.1
20260506194553 79 360 2.0 8.0 0.00 0.00 0.00 55 1008.4
20260506194528 79 360 3.0 8.0 0.00 0.00 0.00 66 1008.1
20260506193058 79 360 3.0 9.0 0.00 0.00 0.00 54 1008.6
20260506193021 79 360 3.0 8.0 0.00 0.00 0.00 66 1008.4
20260506191554 81 132 3.0 7.0 0.00 0.00 0.00 54 1008.7
20260506191521 81 130 2.0 7.0 0.00 0.00 0.00 65 1008.5
20260506190054 81 137 2.0 7.0 0.00 0.00 0.00 52 1008.9
20260506190020 81 136 1.0 7.0 0.00 0.00 0.00 64 1008.7
20260506184554 81 144 4.0 7.0 0.00 0.00 0.00 52 1009.3
20260506184518 81 146 4.0 7.0 0.00 0.00 0.00 63 1009.1
20260506183057 81 167 3.0 6.0 0.00 0.00 0.00 52 1009.7
20260506183027 81 171 3.0 6.0 0.00 0.00 0.00 63 1009.4
20260506181554 80 0 2.0 5.0 0.00 0.00 0.00 52 1010.0
20260506181513 80 198 1.0 5.0 0.00 0.00 0.00 64 1009.9
20260506180054 80 201 0.0 4.0 0.00 0.00 0.00 52 1010.5
20260506180014 80 205 0.0 4.0 0.00 0.00 0.00 63 1010.3
20260506174558 79 215 0.0 4.0 0.00 0.00 0.00 51 1010.8
20260506174512 79 215 0.0 4.0 0.00 0.00 0.00 63 1010.7
20260506173122 79 0 1.0 6.0 0.00 0.00 0.00 52 1011.2
20260506173010 79 175 1.0 5.0 0.00 0.00 0.00 63 1010.8
20260506171556 79 176 2.0 6.0 0.00 0.00 0.00 52 1011.4
20260506171510 79 176 2.0 5.0 0.00 0.00 0.00 63 1011.0
20260506170058 79 185 2.0 4.0 0.00 0.00 0.00 52 1011.3
20260506170008 79 185 2.0 4.0 0.00 0.00 0.00 63 1010.9
20260506164556 78 184 3.0 6.0 0.00 0.00 0.00 52 1011.2
20260506164507 78 184 3.0 6.0 0.00 0.00 0.00 63 1010.9
20260506163104 78 198 3.0 6.0 0.00 0.00 0.00 51 1011.0
20260506163006 78 198 3.0 6.0 0.00 0.00 0.00 62 1010.7
20260506161603 78 173 5.0 9.0 0.00 0.00 0.00 51 1010.8
20260506161507 78 171 4.0 8.0 0.00 0.00 0.00 62 1010.5
20260506160052 78 0 2.0 7.0 0.00 0.00 0.00 51 1010.8
20260506160003 78 211 2.0 7.0 0.00 0.00 0.00 62 1010.5
20260506154606 78 184 1.0 4.0 0.00 0.00 0.00 62 1010.4
20260506154600 78 184 2.0 4.0 0.00 0.00 0.00 50 1010.7
20260506153058 77 178 2.0 9.0 0.00 0.00 0.00 62 1010.4
20260506153054 77 178 2.0 9.0 0.00 0.00 0.00 50 1010.7
20260506151556 77 188 2.0 5.0 0.00 0.00 0.00 62 1010.3
20260506151553 77 188 2.0 5.0 0.00 0.00 0.00 50 1010.5
20260506150056 77 190 3.0 9.0 0.00 0.00 0.00 61 1010.1
20260506144609 77 155 4.0 7.0 0.00 0.00 0.00 49 1010.1
20260506144605 77 155 3.0 6.0 0.00 0.00 0.00 61 1009.9
20260506143057 77 176 2.0 5.0 0.00 0.00 0.00 60 1009.8
20260506141553 76 172 1.0 5.0 0.00 0.00 0.00 48 1009.9
20260506141551 76 172 0.0 4.0 0.00 0.00 0.00 59 1009.8
20260506140105 76 165 2.0 9.0 0.00 0.00 0.00 48 1009.9
20260506140050 76 165 2.0 8.0 0.00 0.00 0.00 60 1009.7
20260506134555 76 194 2.0 6.0 0.00 0.00 0.00 48 1009.8
20260506134549 76 194 2.0 6.0 0.00 0.00 0.00 60 1009.7
20260506133116 76 157 0.0 7.0 0.00 0.00 0.00 48 1009.9
20260506133051 76 157 0.0 5.0 0.00 0.00 0.00 59 1009.7
20260506131555 75 194 2.0 6.0 0.00 0.00 0.00 48 1009.7
20260506131546 75 194 2.0 5.0 0.00 0.00 0.00 59 1009.5
20260506130136 75 0 2.0 8.0 0.00 0.00 0.00 48 1009.7
20260506130056 75 182 1.0 6.0 0.00 0.00 0.00 59 1009.6
20260506124557 74 188 1.0 4.0 0.00 0.00 0.00 48 1009.4
20260506124543 74 185 1.0 5.0 0.00 0.00 0.00 60 1009.3
20260506123055 74 360 1.0 4.0 0.00 0.00 0.00 49 1009.2
20260506123041 74 360 1.0 4.0 0.00 0.00 0.00 60 1009.1
20260506121556 73 203 1.0 5.0 0.00 0.00 0.00 48 1009.2
20260506121540 73 204 1.0 5.0 0.00 0.00 0.00 60 1009.1
20260506120100 73 205 1.0 3.0 0.00 0.00 0.00 49 1009.0
20260506120043 73 205 1.0 3.0 0.00 0.00 0.00 60 1009.0
20260506114607 73 202 1.0 5.0 0.00 0.00 0.00 49 1008.9
20260506114538 73 202 1.0 5.0 0.00 0.00 0.00 61 1008.8
20260506113056 73 195 0.0 6.0 0.00 0.00 0.00 50 1008.7
20260506113037 73 195 1.0 6.0 0.00 0.00 0.00 61 1008.6
20260506111558 73 0 0.0 3.0 0.00 0.00 0.00 50 1008.6
20260506111535 73 177 0.0 3.0 0.00 0.00 0.00 61 1008.4
20260506110057 73 0 0.0 5.0 0.00 0.00 0.00 50 1008.4
20260506110035 73 177 0.0 3.0 0.00 0.00 0.00 61 1008.3
20260506104603 73 202 2.0 6.0 0.00 0.00 0.00 49 1008.4
20260506104535 73 211 2.0 6.0 0.00 0.00 0.00 61 1008.2
20260506103105 73 196 1.0 6.0 0.00 0.00 0.00 50 1008.4
20260506103044 73 192 2.0 5.0 0.00 0.00 0.00 61 1008.3
20260506101553 73 180 2.0 8.0 0.00 0.00 0.00 50 1008.3
20260506101532 73 180 1.0 7.0 0.00 0.00 0.00 62 1008.2
20260506100107 73 182 1.0 5.0 0.00 0.00 0.00 51 1008.1
20260506100032 73 182 1.0 5.0 0.00 0.00 0.00 63 1008.0
20260506094604 74 0 2.0 7.0 0.00 0.00 0.00 51 1008.3
20260506094533 74 217 2.0 6.0 0.00 0.00 0.00 63 1008.0
20260506093055 74 0 2.0 6.0 0.00 0.00 0.00 52 1008.1
20260506093028 74 165 2.0 6.0 0.00 0.00 0.00 63 1008.0
20260506091558 74 183 2.0 9.0 0.00 0.00 0.00 52 1008.2
20260506091531 74 183 1.0 9.0 0.00 0.00 0.00 64 1008.0
20260506090054 74 190 3.0 8.0 0.00 0.00 0.00 52 1008.1
20260506090041 74 192 3.0 7.0 0.00 0.00 0.00 64 1008.0
20260506084600 74 157 1.0 7.0 0.00 0.00 0.00 52 1008.1
20260506084526 74 176 1.0 5.0 0.00 0.00 0.00 64 1008.0
20260506083057 74 0 2.0 11.0 0.00 0.00 0.00 52 1008.2
20260506083026 74 183 2.0 11.0 0.00 0.00 0.00 64 1008.0
20260506081605 74 158 3.0 9.0 0.00 0.00 0.00 53 1008.0
20260506081524 74 191 2.0 8.0 0.00 0.00 0.00 64 1007.9
20260506073053 74 131 4.0 11.0 0.00 0.00 0.00 54 1008.1
20260506073021 74 191 2.0 11.0 0.00 0.00 0.00 65 1008.2
20260506071558 75 178 2.0 6.0 0.00 0.00 0.00 54 1008.6
20260506071519 75 178 2.0 6.0 0.00 0.00 0.00 65 1008.4
20260506061553 75 161 2.0 9.0 0.00 0.00 0.00 53 1008.7
20260506061524 75 161 2.0 9.0 0.00 0.00 0.00 65 1008.5